Location: ???????
(55.4362°N, 38.1183°E)
Time: 00:59:58
(UTC+00:00)

METEOR M2 - Pass Details

Date: 06 December 2021
Orbit: 818 x 827 km, 98.4° (Epoch: 28 January)

Event Time Altitude Azimuth Distance (km) Brightness Sun altitude
Rises 03:49:24 0° 22° (NNE) 3,371 ? -14.2°
Reaches altitude 10° 03:52:14 10° 36° (NE) 2,432 ? -13.8°
Maximum altitude 03:56:31 24° 89° (E) 1,661 ? -13.2°
Drops below altitude 10° 04:00:46 10° 142° (SE) 2,414 ? -12.7°
Sets 04:03:34 0° 157° (SSE) 3,341 ? -12.3°
